Location: Newark
(47.5833°N, 8.1500°E)
Time: 20:50:58
(UTC+00:00)

Vanguard 2 Rocket - Pass Details

Date: 05 November 2020
Orbit: 553 x 3326 km, 32.9° (Epoch: 04 December)

Event Time Altitude Azimuth Distance (km) Brightness Sun altitude
Rises 17:12:48 0° 239° (WSW) 2,953 11.0 -12.0°
Reaches altitude 10° 17:17:02 10° 199° (SSW) 1,844 8.9 -12.7°
Maximum altitude 17:17:58 11° 185° (S) 1,784 8.6 -12.9°
Drops below altitude 10° 17:18:54 10° 171° (S) 1,819 8.5 -13.0°
Enters shadow 17:21:43 - 139° (SE) 2,407 8.8 -13.5°
